Theta_e
304 303 305 308 311 312 313 316 317 317 317 317 316 314 312 310 310 310 311 312 314 318 317 320 321 321 319 319 318 319 324 324 320 318 318 319 318 320 321 320 321 322 323 324 324 327 326 326 333 334 328 329 332 333
304 303 307 309 312 314 313 315 316 316 316 315 313 311 310 310 311 310 310 313 312 310 313 316 315 317 319 319 317 318 322 323 322 319 315 316 320 317 322 326 319 322 318 321 323 324 322 326 329 327 326 328 332 332
303 303 307 310 313 314 315 315 314 314 313 312 311 310 310 310 310 310 310 310 311 312 313 314 316 316 316 315 315 318 317 322 319 315 317 317 320 315 323 322 324 322 318 320 322 322 321 323 324 328 327 329 331 330
304 304 308 311 313 313 313 312 312 311 311 311 310 310 309 309 309 309 309 310 310 310 316 315 315 315 315 315 316 316 316 317 316 315 319 319 318 313 317 319 321 321 320 321 321 323 325 325 326 328 331 330 332 330
304 304 308 312 313 312 312 311 310 310 310 310 309 309 309 309 308 309 309 309 309 310 316 314 314 315 316 315 316 316 316 317 315 316 318 323 315 317 312 314 319 319 318 323 324 323 323 323 325 327 331 330 332 333
304 304 309 311 312 311 311 310 309 309 309 309 308 308 309 308 308 309 306 312 310 308 315 319 314 315 316 315 315 316 316 317 316 316 319 318 317 315 317 317 316 314 313 318 323 321 323 324 326 327 329 328 330 333
304 304 308 310 310 310 310 309 308 307 307 307 307 307 308 308 308 308 308 313 312 311 317 318 318 316 320 314 312 316 318 317 318 319 319 321 320 315 317 319 318 318 317 317 320 322 326 326 328 326 327 328 328 332
304 304 306 309 309 309 309 309 308 308 306 306 307 307 307 308 308 307 311 312 312 309 314 319 320 320 320 320 318 315 318 319 318 318 319 321 319 317 321 318 319 320 320 322 321 322 323 321 323 325 323 325 329 330
304 304 306 308 308 306 306 307 308 307 306 306 306 307 308 307 306 311 314 314 311 311 318 320 324 325 320 321 319 317 315 322 317 320 321 321 322 323 321 320 320 319 323 323 321 320 319 322 322 323 325 326 326 330
304 304 307 307 305 304 305 305 306 306 305 306 307 308 311 311 314 313 314 314 313 313 314 318 316 322 318 317 324 322 319 320 324 322 322 324 322 320 319 318 318 318 318 318 321 322 320 319 319 321 326 326 328 329
304 303 304 305 304 304 304 305 305 305 306 308 310 311 313 314 314 312 318 318 316 318 316 316 316 321 316 323 326 325 325 321 323 323 324 322 322 322 321 321 318 316 316 318 320 320 319 318 317 319 324 328 328 331
304 304 304 304 304 303 304 305 305 305 308 308 307 309 311 313 313 315 320 320 319 320 317 321 319 319 320 321 328 328 328 323 327 323 323 325 322 320 319 321 322 318 317 317 317 318 318 318 317 317 321 327 329 331
304 303 303 303 303 303 304 305 305 305 306 308 310 314 316 316 317 322 323 323 324 323 323 323 324 318 319 324 327 328 330 329 325 328 328 324 320 323 324 318 321 319 318 318 319 319 318 319 319 318 318 325 328 329
303 303 303 303 304 305 305 305 305 305 306 309 315 312 318 318 318 317 321 322 322 322 323 323 321 322 321 323 327 329 327 328 331 330 329 323 324 325 325 323 321 322 320 320 321 321 321 320 319 320 319 320 327 328
303 304 304 305 305 305 305 305 304 305 307 312 315 316 315 313 315 318 318 320 321 320 321 321 321 323 325 326 326 325 329 329 331 329 323 322 322 320 326 327 324 321 320 321 321 322 322 321 320 320 321 320 324 328
304 304 304 304 304 304 305 304 305 306 309 312 312 314 314 315 315 314 316 318 318 321 320 319 324 325 325 325 327 328 328 328 326 326 327 323 322 323 324 324 325 325 326 326 325 322 319 319 319 320 321 321 323 327
303 304 307 306 306 305 305 306 306 309 311 313 314 311 312 313 316 316 319 319 318 318 323 322 324 327 325 325 326 326 327 327 326 327 324 323 322 320 320 322 323 325 325 325 327 327 326 321 319 321 321 321 322 325
304 307 307 307 306 305 306 307 310 312 313 312 313 311 311 313 314 316 317 315 316 317 320 323 320 326 328 328 328 325 324 323 322 323 320 319 319 318 319 320 321 321 322 323 324 325 326 324 323 322 322 321 321 325
306 307 307 306 306 308 306 307 307 311 312 311 310 309 310 311 310 312 312 310 311 314 315 319 320 321 321 321 325 324 323 323 323 320 320 318 318 319 319 321 319 320 322 322 322 322 323 324 325 325 324 323 324 325
306 307 308 307 307 310 312 312 309 311 313 311 309 310 310 312 311 311 312 311 311 314 318 319 317 316 319 320 319 320 319 319 320 320 321 319 318 316 318 318 318 319 321 321 322 323 323 323 325 325 324 324 325 326
307 307 308 309 309 309 309 311 314 314 313 312 311 311 312 309 311 312 312 309 311 312 314 314 315 314 311 313 317 317 317 317 318 319 320 319 318 318 318 320 320 322 320 319 319 320 320 321 322 323 324 324 325 327
309 308 308 308 308 310 311 308 308 308 309 310 310 309 311 312 313 313 311 313 313 312 310 310 311 313 312 313 317 318 317 317 318 319 319 319 318 317 317 317 321 320 319 318 319 320 321 322 322 322 323 324 324 327
308 308 309 309 311 310 309 307 311 309 312 311 313 318 318 318 318 315 319 314 315 314 311 310 310 311 311 312 313 314 316 319 316 317 318 318 319 318 317 319 321 321 319 320 320 321 321 322 322 322 322 324 324 323
308 308 311 313 312 308 307 309 308 311 313 317 320 321 321 320 318 322 325 323 322 317 316 315 311 311 313 314 313 314 317 319 319 319 318 317 316 317 318 320 322 321 320 320 321 320 321 321 321 321 321 322 323 324
309 305 306 305 306 312 315 314 312 314 319 320 321 321 321 319 322 324 325 324 318 319 320 319 317 317 319 319 318 317 319 318 317 318 319 319 319 318 318 319 319 319 319 320 320 321 321 321 320 320 320 322 322 322
309 306 305 312 310 311 312 317 318 320 320 322 323 321 322 322 326 325 322 318 319 321 322 322 321 320 321 320 320 319 320 320 319 318 319 320 319 318 318 317 316 317 321 322 321 321 319 319 318 318 319 320 319 317
308 306 305 304 309 312 314 316 317 319 320 323 318 322 324 324 324 322 320 319 319 321 321 321 320 318 317 317 319 319 319 320 320 319 321 321 321 321 319 317 318 321 322 321 320 320 319 318 317 316 316 315 315 315
308 306 308 307 308 310 315 317 319 322 322 319 321 323 324 323 323 321 320 320 321 321 320 320 320 319 322 321 320 321 321 322 322 321 321 321 321 321 321 320 320 320 320 321 320 320 319 319 319 318 317 317 316 316
307 306 307 309 310 312 316 319 320 320 318 319 321 321 322 321 319 318 319 320 321 320 318 317 318 322 322 322 322 321 320 319 319 318 317 317 317 319 319 319 320 319 319 319 320 319 317 316 316 318 318 317 316 317
307 305 308 311 315 317 318 319 320 318 316 317 318 318 318 318 320 321 320 320 318 317 318 318 319 319 318 318 316 319 319 319 319 317 315 316 318 318 318 319 319 319 318 318 318 319 319 318 317 317 317 317 318 318
307 310 313 315 319 318 318 316 316 316 318 318 317 318 319 318 318 319 319 318 316 315 315 315 316 318 319 318 317 317 317 319 320 319 319 319 319 318 318 319 318 317 314 312 314 316 316 316 316 316 317 317 317 317
312 315 319 319 319 315 318 319 319 319 317 318 318 316 317 317 318 314 317 317 316 315 314 314 315 314 315 317 320 320 316 317 317 318 317 318 318 317 317 316 316 316 316 313 312 313 314 314 314 315 315 316 316 316
314 317 317 316 316 320 319 320 321 320 318 318 318 319 318 318 319 314 316 317 317 317 316 315 316 318 319 319 320 320 318 317 316 316 316 317 317 317 317 316 316 317 317 313 314 313 314 316 315 315 314 314 314 314
Wind_Speed
18 19 18 19 18 19 15 15 12 10 9 10 9 7 5 4 3 5 6 5 4 2 5 6 6 5 6 2 3 5 5 2 4 3 4 4 3 6 4 4 5 7 6 3 2 1 6 5 4 6 5 3 3 4
17 17 16 19 17 16 12 12 9 7 8 7 5 5 4 4 4 5 3 4 4 4 5 15 21 22 20 20 3 1 2 2 4 3 1 2 3 2 4 4 2 2 6 5 8 6 5 4 3 2 3 4 3 5
16 15 13 16 15 12 7 6 6 6 5 4 3 4 5 5 5 5 6 7 4 2 6 6 9 20 24 33 33 4 3 6 2 2 2 2 3 4 4 4 3 2 3 3 2 2 5 6 3 3 4 3 3 4
15 14 12 13 11 8 6 5 4 3 3 3 4 5 6 6 6 7 7 5 3 3 4 6 9 14 11 15 23 34 15 1 2 3 2 3 2 3 4 2 4 4 6 5 3 4 3 5 5 6 5 6 8 6
14 11 12 11 9 7 5 4 3 4 4 4 5 7 8 8 8 11 16 17 12 3 3 6 18 23 15 25 22 26 24 11 3 3 2 4 2 4 2 2 2 5 7 5 5 8 5 5 5 8 6 6 9 9
15 10 11 9 8 6 5 5 5 5 6 6 6 8 8 8 9 7 2 2 7 10 3 4 5 5 8 7 19 13 9 4 3 3 4 3 3 3 4 3 4 4 5 6 4 5 5 2 6 6 7 7 7 8
13 10 10 8 8 6 6 6 6 6 7 8 9 9 8 8 9 5 3 2 6 2 2 5 4 4 5 5 3 3 8 3 4 3 3 2 1 3 3 3 6 7 7 6 3 7 3 3 6 9 8 7 8 7
11 10 9 8 7 6 5 7 7 8 8 10 8 8 9 9 13 9 2 6 15 4 2 3 4 4 5 1 2 4 4 2 3 3 1 3 1 1 2 5 2 3 6 5 9 5 5 5 7 6 7 9 8 6
8 9 9 8 5 4 5 6 6 7 9 8 8 9 5 3 3 2 6 5 14 3 2 2 3 4 6 3 1 2 4 4 1 4 3 3 1 2 6 5 6 7 9 9 6 3 6 6 8 8 7 7 8 9
8 7 7 6 5 6 7 6 6 7 8 7 4 1 2 3 5 3 3 1 2 2 2 3 2 3 2 3 3 1 2 4 4 3 3 2 4 3 5 8 6 9 8 9 6 2 2 3 7 7 9 8 9 12
8 7 7 6 5 7 9 5 5 7 4 1 1 2 4 3 2 1 2 3 2 3 3 3 4 3 2 2 3 2 2 2 4 3 5 4 4 5 6 6 8 5 6 10 7 9 9 7 9 8 6 7 8 12
6 7 7 7 5 8 8 6 4 4 1 3 8 7 4 1 1 1 3 3 4 3 3 2 3 4 3 1 2 4 2 1 3 3 3 3 5 5 4 8 8 8 7 7 5 8 8 7 9 8 6 7 16 21
6 7 8 8 7 8 7 6 4 5 7 3 2 2 2 1 1 3 2 1 2 1 1 2 3 2 2 1 2 4 6 3 2 1 3 4 3 4 5 4 4 5 6 3 4 6 6 6 8 11 9 19 18 19
6 7 7 7 7 6 5 4 3 3 1 1 2 3 3 3 3 3 3 3 3 2 2 3 3 2 2 2 2 3 3 2 5 1 2 2 3 6 5 2 2 3 8 8 7 3 6 7 8 9 14 19 22 19
6 5 6 7 6 6 5 4 4 4 2 2 2 3 5 4 3 3 3 2 2 2 2 2 2 2 0 2 2 1 3 2 2 3 2 3 4 5 6 6 6 5 1 3 3 4 6 8 7 8 10 16 25 20
2 4 6 5 6 7 6 6 4 3 3 2 4 3 3 1 3 2 2 2 2 2 1 1 2 3 2 3 2 4 4 4 3 2 2 3 4 4 4 5 5 4 4 3 5 1 1 2 5 7 3 14 23 27
4 2 2 3 5 9 9 5 4 3 3 3 4 3 3 4 5 3 2 3 3 1 2 1 1 2 1 2 2 2 2 1 1 2 2 1 2 3 4 4 5 6 6 8 7 10 6 3 3 4 5 10 21 28
2 5 3 5 10 10 4 3 3 3 5 4 3 3 3 3 3 2 3 2 2 2 1 3 2 2 2 4 3 3 3 2 1 1 1 4 2 2 4 5 8 9 9 9 8 7 4 5 4 6 10 10 11 18
2 3 6 8 7 3 3 3 3 3 5 3 3 3 3 3 3 3 3 2 3 2 1 1 2 2 3 3 3 1 1 2 2 2 3 4 3 3 1 2 3 7 8 8 9 8 9 8 10 13 11 6 12 16
3 2 5 9 8 2 2 2 4 3 3 3 2 3 3 3 2 2 2 2 2 1 1 3 4 3 3 2 3 3 3 1 2 1 2 2 1 1 2 3 2 4 4 6 7 8 11 13 12 11 12 12 13 16
0 2 4 6 4 4 2 2 3 3 3 2 2 1 3 3 2 1 2 1 2 3 4 4 4 4 4 3 3 2 2 3 3 3 2 1 1 1 3 4 2 2 3 4 4 9 11 8 16 18 14 15 20 22
1 5 2 5 2 2 3 5 3 3 2 3 3 0 3 3 2 2 1 1 3 4 4 4 4 4 3 4 5 8 5 2 2 4 5 3 1 1 2 4 4 2 4 5 5 7 14 18 18 17 14 12 11 14
4 3 2 3 2 2 6 1 2 3 2 3 1 2 2 2 2 2 2 2 3 3 4 3 5 9 6 11 8 9 9 7 3 6 6 5 7 8 8 7 4 3 3 7 9 13 16 18 16 13 7 4 10 15
2 2 2 2 4 4 2 3 2 3 2 2 2 4 3 2 2 1 3 2 3 2 2 2 1 1 1 1 2 4 10 9 9 8 7 3 3 6 7 6 5 5 5 10 13 16 17 17 13 8 2 9 15 18
0 3 2 3 2 2 4 3 2 1 1 2 3 3 2 0 1 2 2 2 3 2 3 3 1 2 3 2 2 6 7 9 5 4 7 8 9 6 2 1 2 4 6 9 12 15 16 14 9 5 5 10 9 12
2 3 5 3 2 3 3 3 2 2 3 3 4 2 1 2 2 1 2 3 2 2 3 3 3 2 1 1 1 1 3 2 6 3 4 4 7 4 2 1 1 2 4 6 9 10 9 7 5 2 2 4 2 7
2 3 3 3 3 3 3 3 2 2 2 3 2 3 2 3 3 2 2 2 2 4 8 8 4 2 1 2 4 5 4 4 4 5 7 7 6 5 4 4 2 4 5 7 10 8 10 13 14 10 10 9 6 6
3 2 3 2 3 2 3 3 2 2 2 2 2 3 2 1 2 2 3 5 8 7 4 4 7 8 6 4 6 9 11 14 16 16 17 16 14 14 14 12 11 10 9 8 9 11 12 16 19 17 18 19 16 13
3 2 1 3 3 3 3 3 2 2 2 1 2 2 2 2 2 2 3 3 3 4 5 6 8 8 8 8 7 5 5 5 2 3 5 3 2 6 7 8 8 8 10 9 9 9 12 15 16 15 18 21 21 17
3 4 2 3 3 3 3 3 2 2 1 1 2 2 2 2 8 6 4 4 4 4 3 1 1 3 4 5 5 9 10 5 3 7 4 3 4 8 8 7 6 6 8 9 9 8 6 8 11 12 13 13 12 13
2 3 3 3 2 2 1 2 1 1 1 2 1 1 2 3 5 4 4 4 5 5 5 5 6 4 3 3 3 5 7 10 10 11 13 12 10 8 6 6 6 7 8 8 5 5 6 6 7 7 7 8 9 9
2 3 1 2 3 3 2 1 1 0 1 1 2 1 3 3 3 3 2 2 5 8 7 5 4 5 5 6 7 7 9 10 11 12 13 13 12 10 8 6 6 5 6 7 6 6 6 4 4 4 5 7 7 5
2 3 4 2 2 0 2 1 2 2 1 2 1 1 1 2 1 3 3 2 2 3 7 9 10 10 10 9 9 9 8 6 6 6 7 6 4 2 1 1 1 3 6 3 2 0 2 4 7 7 8 10 9 8
Wind_Direction
307 311 312 315 317 315 302 303 298 295 255 252 253 270 270 265 279 307 287 225 207 258 276 237 241 261 291 221 216 296 337 295 306 96 129 189 128 208 119 172 182 170 143 175 107 116 295 176 101 161 217 278 237 155
307 311 311 316 316 314 297 294 290 265 259 251 256 248 242 264 282 308 286 175 224 220 258 285 274 259 243 244 239 292 255 285 266 17 74 115 128 137 152 199 80 219 176 177 172 211 228 245 196 130 174 226 219 124
306 307 311 314 316 319 303 288 279 275 265 252 247 252 259 271 282 277 281 295 264 266 277 249 241 263 249 239 234 208 238 212 280 202 190 238 138 130 149 232 168 207 178 118 95 252 228 227 223 182 190 207 107 117
306 304 305 305 302 301 301 294 287 274 267 265 265 266 271 275 285 287 278 250 280 280 273 280 290 275 264 237 228 218 230 133 360 340 273 221 171 201 168 185 164 194 137 154 273 276 264 249 214 154 137 115 112 120
307 299 298 297 279 285 290 288 285 292 297 287 281 278 277 280 290 291 278 271 244 206 290 287 288 282 271 243 225 206 217 236 43 328 295 239 167 135 61 84 225 189 166 156 216 212 157 237 170 152 148 156 152 141
308 295 293 288 273 269 281 285 289 297 300 299 295 285 279 285 301 309 328 349 184 191 273 306 297 293 308 239 202 193 182 151 194 192 245 268 250 95 136 189 255 207 198 179 197 160 152 97 139 141 157 174 164 156
306 293 290 283 268 269 278 285 286 291 303 309 303 289 285 283 286 234 226 140 167 273 272 297 285 272 293 134 134 119 163 191 169 212 239 235 321 117 107 168 228 206 216 224 175 123 85 160 184 176 148 160 154 128
302 294 285 281 266 268 279 288 291 293 302 313 299 289 285 285 282 283 335 237 213 280 282 277 279 309 354 280 136 160 138 222 216 225 254 189 64 25 171 237 213 160 158 166 182 236 154 133 113 134 118 135 150 168
294 287 280 285 283 293 309 302 289 296 306 311 300 296 284 236 238 302 306 247 195 226 266 259 322 314 352 301 256 205 165 162 191 202 220 95 321 192 220 175 189 183 177 186 164 70 120 151 170 162 159 161 167 173
278 281 274 264 281 317 316 311 299 301 306 300 304 300 268 237 284 159 256 173 168 202 224 250 277 255 316 282 276 231 205 155 157 238 75 106 265 273 254 213 208 195 186 134 112 141 150 151 182 178 191 188 186 181
270 278 275 273 273 314 312 298 296 313 296 281 261 244 308 236 254 217 258 201 154 233 204 238 214 245 266 271 296 4 291 171 135 208 150 165 223 238 216 210 213 235 195 203 187 195 184 178 176 188 209 204 186 172
264 259 258 265 267 282 279 270 277 300 338 328 294 296 293 253 257 278 247 170 208 238 196 216 246 204 276 278 322 339 293 8 97 311 113 160 246 246 251 229 218 197 200 233 245 200 193 198 186 178 194 187 187 199
259 275 270 269 266 265 262 258 252 295 290 293 236 249 240 200 258 240 259 259 335 258 18 1 331 262 285 283 305 359 4 8 262 157 212 222 312 313 307 274 277 231 207 219 197 227 214 213 182 189 194 211 205 182
273 269 264 253 255 252 234 235 223 276 278 265 242 273 229 217 240 205 229 240 246 189 264 245 249 232 225 132 114 339 324 309 3 327 241 328 309 310 319 276 212 207 201 217 226 231 242 229 223 215 219 218 194 188
273 267 258 253 240 219 213 212 229 212 259 252 234 241 224 238 278 256 269 274 269 263 240 270 273 238 200 135 119 152 132 240 275 275 313 280 315 345 11 27 53 52 121 184 190 217 236 230 219 237 228 216 206 197
280 286 266 255 224 211 198 185 190 204 245 235 233 261 246 304 283 309 268 267 210 257 305 57 320 40 264 312 186 224 188 199 221 211 266 338 352 346 12 21 20 53 75 77 73 78 265 231 228 246 229 210 206 197
300 269 25 128 165 173 176 177 186 224 255 241 242 229 239 256 251 252 201 277 166 56 234 157 297 153 83 317 286 266 235 205 290 224 129 26 324 306 349 21 30 22 34 34 25 20 355 290 238 259 240 222 210 207
285 350 135 156 160 150 187 221 250 238 245 240 238 254 211 224 238 240 259 216 167 218 196 228 160 177 225 207 203 239 260 8 282 52 104 248 243 357 342 6 18 21 23 21 13 355 359 293 234 242 264 293 241 213
317 96 155 163 170 202 179 230 201 258 245 245 248 240 236 250 245 248 242 217 210 217 140 96 236 221 227 235 227 237 272 220 212 205 226 257 268 261 288 79 36 33 27 16 5 344 326 310 283 294 291 252 205 207
239 210 174 199 215 272 251 224 197 251 265 245 250 260 228 230 289 259 256 210 178 155 241 215 217 221 209 237 204 208 208 182 107 58 267 276 194 168 84 20 7 350 358 1 0 1 352 345 350 327 289 256 212 204
70 150 183 184 217 241 265 280 250 225 270 256 283 302 275 334 289 274 270 117 121 206 221 216 227 244 223 265 262 214 195 172 193 186 210 309 250 310 11 24 13 20 22 354 343 333 338 324 326 326 302 266 242 231
74 161 177 194 252 258 257 233 235 281 279 258 312 339 288 301 286 250 158 137 228 236 210 207 225 221 206 245 235 222 254 287 252 252 269 278 321 311 307 322 330 315 324 321 321 314 317 327 329 325 306 280 251 236
156 195 235 191 241 244 264 220 252 241 249 270 302 264 233 251 235 146 257 230 254 234 229 242 257 245 215 237 241 261 269 261 250 243 250 248 271 276 297 314 256 259 296 313 319 320 317 322 325 325 325 158 135 102
174 219 255 222 194 259 301 264 229 272 278 263 311 296 265 247 310 231 203 246 261 319 296 264 244 271 4 127 213 230 242 228 241 262 260 223 259 276 272 270 259 274 300 310 317 317 320 321 323 322 230 160 138 132
298 276 111 279 250 254 244 231 243 299 299 311 257 247 258 218 259 322 319 262 312 298 319 328 266 217 211 219 230 246 252 224 211 232 268 235 245 265 302 356 293 298 313 322 327 328 328 329 324 310 228 187 169 149
240 216 174 256 205 192 245 284 318 274 262 247 230 244 260 239 240 263 299 307 296 304 326 340 331 337 324 260 268 325 329 303 228 208 273 251 220 196 160 124 8 3 17 357 335 332 346 7 14 71 129 170 154 142
262 279 249 236 268 285 287 267 272 296 271 280 330 320 334 357 1 323 303 272 273 301 330 348 9 36 14 22 65 38 70 109 131 132 116 112 112 103 100 120 107 55 60 40 37 50 66 73 68 65 66 63 66 121
237 259 222 294 313 240 266 293 272 273 300 323 320 15 330 288 286 272 244 283 298 324 6 52 35 33 53 62 85 85 88 101 102 98 92 82 83 89 94 88 82 78 69 59 59 65 85 86 84 79 74 67 67 84
245 240 168 272 252 261 241 222 244 286 299 15 334 284 290 241 257 246 291 304 15 24 28 29 36 65 71 69 66 67 143 154 75 87 92 87 47 77 93 94 91 76 63 68 81 96 102 97 97 94 100 102 101 102
253 170 204 245 224 240 246 189 274 288 263 272 283 304 296 286 276 320 300 320 324 325 343 312 77 45 31 28 47 54 38 43 144 135 139 155 165 135 121 105 92 76 71 73 96 112 101 102 106 109 110 118 136 152
246 189 245 239 271 260 271 276 297 302 306 300 266 253 268 289 303 303 341 24 51 64 96 101 105 127 121 69 71 59 42 62 91 106 118 127 136 137 118 103 85 71 68 68 94 112 119 124 126 129 134 151 170 179
212 214 71 305 273 303 321 2 256 264 298 299 289 325 328 353 345 303 40 97 69 52 52 56 73 74 81 108 125 105 103 110 109 109 112 115 119 120 114 102 93 74 53 81 94 101 98 111 143 182 215 227 231 241
184 188 204 264 290 219 272 312 213 218 260 360 346 248 256 183 273 272 349 303 242 111 89 80 76 70 72 86 116 127 133 122 117 129 134 117 94 80 54 92 82 8 357 18 353 182 28 106 108 80 65 70 66 62